Location: Drocourt
(49.0571°N, 1.7669°E)
Time: 06:24:48
(UTC+00:00)

Cosmos 1943 Rocket - Visible Passes

Search period start: 30 September 2023 00:00
Search period end: 10 October 2023 00:00
Orbit: 810 x 845 km, 71.0° (Epoch: 29 September)

Date Brightness Start Highest point End Pass type
(mag) Time Alt. Az. Time Alt. Az. Time Alt. Az.
30 Sep 2.9 18:40:39 10° NNW 18:45:52 35° NE 18:49:24 18° ESE visible
30 Sep 2.9 20:24:21 10° NW 20:29:47 48° WSW 20:30:55 42° SW visible
01 Oct 3.0 18:21:22 10° NNW 18:26:26 32° NE 18:30:50 13° ESE visible
01 Oct 2.7 20:04:57 10° NW 20:10:28 54° WSW 20:12:23 37° SSW visible
02 Oct 3.2 18:02:03 10° NNW 18:07:00 30° NE 18:11:55 10° ESE visible
02 Oct 2.6 19:45:34 10° NW 19:51:09 60° WSW 19:53:56 29° S visible
03 Oct 2.4 19:26:11 10° NNW 19:31:49 68° WSW 19:35:35 21° SSE visible
03 Oct 4.9 21:12:57 10° WNW 21:14:27 11° W 21:15:57 10° WSW visible
04 Oct 2.3 19:06:48 10° NNW 19:12:29 76° WSW 19:17:22 14° SSE visible
04 Oct 4.8 20:52:50 10° WNW 20:55:13 13° W 20:57:37 10° WSW visible
05 Oct 2.2 18:47:27 10° NNW 18:53:09 85° WSW 18:58:46 10° SSE visible
05 Oct 4.8 20:33:00 10° WNW 20:36:00 15° W 20:38:59 10° SW visible
06 Oct 2.2 18:28:05 10° NNW 18:33:48 87° ENE 18:39:25 10° SSE visible
06 Oct 4.7 20:13:17 10° WNW 20:16:45 17° W 20:20:11 10° SW visible
07 Oct 2.2 18:08:44 10° NNW 18:14:26 78° ENE 18:20:03 10° SSE visible
07 Oct 4.6 19:53:39 10° WNW 19:57:30 19° W 20:01:19 10° SW visible
08 Oct 2.2 17:49:23 10° NNW 17:55:04 70° ENE 18:00:40 10° SE visible
08 Oct 4.5 19:34:04 10° NW 19:38:14 22° W 19:42:23 10° SSW visible
09 Oct 4.4 19:14:32 10° NW 19:18:58 24° WSW 19:23:23 10° SSW visible
